Weather History for LIBA - June, 2014

Change the Weather History Date:

Friday, June 6, 2014

  Actual Average Record
Temperature  
Mean Temperature 72 °F -  
Max Temperature 88 °F 84 °F 91 °F (2003)
Min Temperature 54 °F 60 °F 51 °F (2001)
Cooling Degree Days 6    
Growing Degree Days 22 (Base 50)    
Moisture  
Dew Point 52 °F    
Average Humidity 38    
Maximum Humidity 88    
Minimum Humidity 15    
Precipitation  
Precipitation 0.00 in 0.04 in - ()
Sea Level Pressure  
Sea Level Pressure 30.04 in    
Wind  
Wind Speed 4 mph ()    
Max Wind Speed 13 mph    
Max Gust Speed -    
Visibility 8.1 miles    
Events      
Averages and records for this station are not official NWS values.
T = Trace of Precipitation, MM = Missing Value Source: Averaged Metar Reports

Daily Weather History Graph

Daily Weather History Graph

Search for Another Location

Airport or City:

Trip Planner

Search our weather history database for the weather conditions in past years. The results will help you decide how hot, cold, wet, or windy it might be!

Date:

Astronomy

Jun. 06, 2014 Rise Set
Actual Time 5:23 AM CEST 8:28 PM CEST
Civil Twilight 4:50 AM CEST 9:01 PM CEST
Nautical Twilight 4:07 AM CEST 9:44 PM CEST
Astronomical Twilight 3:16 AM CEST 10:35 PM CEST
Moon 1:25 PM CEST (6/6) 1:12 AM CEST (6/6)
Length of Visible Light 16h 11m
Length of Day
15h 04m
First Quarter, 55% of the Moon is Illuminated
Jun 6
First Quarter
Jun 13
Full
Jun 19
Last Quarter
Jun 27
New
Jul 5
First Quarter

Hourly Weather History & Observations

Time (CEST) Temp. Heat Index Dew Point Humidity Pressure Visibility Wind Dir Wind Speed Gust Speed Precip Events Conditions
6:55 AM 60.8 °F - 57.2 °F 88% 30.04 in - West 2.3 mph - N/A   Clear
7:55 AM 66.2 °F - 57.2 °F 73% 30.04 in - West 3.5 mph - N/A   Clear
8:00 AM 67 °F - 57 °F 63% 30.05 in 12 mi West 3.5 mph - -  
8:55 AM 75.2 °F - 53.6 °F 47% 30.04 in - West 4.6 mph - N/A   Clear
9:55 AM 78.8 °F - 50.0 °F 36% 30.04 in 6.2 mi WSW 2.3 mph - N/A   Partly Cloudy
10:55 AM 84.2 °F - 50.0 °F 30% 30.04 in 6.2 mi WSW 4.6 mph - N/A   Partly Cloudy
11:00 AM 84 °F - 50 °F 21% 30.04 in 12 mi WSW 4.6 mph - -   Scattered Clouds
11:55 AM 84.2 °F - 46.4 °F 27% 30.04 in 6.2 mi WSW 3.5 mph - N/A   Partly Cloudy
12:55 PM 87.8 °F - 48.2 °F 25% 30.04 in 6.2 mi WNW 9.2 mph - N/A   Partly Cloudy
1:55 PM 87.8 °F - 48.2 °F 25% 30.04 in 6.2 mi ENE 5.8 mph - N/A   Partly Cloudy
2:00 PM 89 °F - 48 °F 15% 30.04 in 12 mi ENE 5.8 mph - -   Scattered Clouds
2:55 PM 86.0 °F 84.2 °F 53.6 °F 33% 30.04 in 6.2 mi East 5.8 mph - N/A   Partly Cloudy
3:55 PM 84.2 °F 82.8 °F 53.6 °F 35% 30.04 in 6.2 mi ENE 6.9 mph - N/A   Partly Cloudy
4:55 PM 84.2 °F 83.0 °F 55.4 °F 37% 30.04 in 6.2 mi ESE 4.6 mph - N/A   Partly Cloudy
5:00 PM 84 °F - 55 °F 27% 30.03 in 12 mi ESE 4.6 mph - -   Scattered Clouds
5:55 PM 82.4 °F 81.7 °F 55.4 °F 39% 30.01 in 6.2 mi Calm Calm - N/A   Partly Cloudy
6:55 PM 82.4 °F 81.4 °F 53.6 °F 37% 30.04 in 6.2 mi WNW 11.5 mph - N/A   Partly Cloudy
7:55 PM 82.4 °F - 50.0 °F 32% 30.04 in - WNW 12.7 mph - N/A   Clear
8:00 PM 82 °F - 50 °F 23% 30.04 in 12 mi WNW 12.7 mph - -